User: anonymous   Login
Location: Petruro
(41.0333°N, 14.7833°E)
Time: 17:06:33
(UTC+00:00)
Language:

Cosmos 1656 Rocket - Orbit

View from above orbital plane
View from above orbital plane
View from above satellite
View from above satellite

Ground track
Ground track

The orbit data is extracted from the following two-line orbital elements,

1 15772U 85042D   21259.12154149 -.00000056  00000-0 -38045-5 0  9995
2 15772  71.1076 300.9235 0034332 153.4164 274.7642 14.21300132881957
Epoch (UTC): 16 September 2021 02:55:01
Eccentricity: 0.0034332
inclination: 71.1076°
perigee height: 796 km
apogee height: 845 km
right ascension of ascending node: 300.9235°
argument of perigee: 153.4164°
revolutions per day: 14.21300132
mean anomaly at epoch: 274.7642°
orbit number at epoch: 88195

The dashed part of the orbit path shows where the satellite is in the earth's shadow,  

DLR